Regional Weather Roundup
Issued by NWS Goodland, KS

Home | Current Version | Previous Version | Graphics & Text | Print | Product List | Glossary On
Versions: 1 2 3 4 5 6 7 8 9 10 11 12 13 14 15 16 17 18 19 20 21 22 23 24 25 26 27 28 29 30 31 32 33 34 35 36 37 38 39 40 41 42 43 44 45 46 47 48 49 50
000
ASUS43 KGLD 241959
RWRGLD

GOODLAND FORECAST AREA HOURLY WEATHER ROUNDUP
NATIONAL WEATHER SERVICE GOODLAND KS
100 PM MST FRI FEB 24 2017

...OFFICIAL OBSERVATIONS...

CITY           SKY/WX    TMP DP  RH WIND       PRES   REMARKS
GOODLAND KS    CLOUDY    28  22  78 N18       29.97S WCI  15
HILL CITY KS   CLOUDY    33  23  66 N21G31    29.97F
IMPERIAL NEB   CLOUDY    25  18  74 N18       30.01F WCI  11
MCCOOK NEB     CLOUDY    28  19  69 N20       30.00R WCI  15
AKRON CO       CLOUDY    23  18  81 N7        29.97S
BURLINGTON CO  CLOUDY    27  19  72 N15       29.97S WCI  15
LIMON CO       CLOUDY    25  16  68 N12       29.93F WCI  14
$$

...UNOFFICIAL OBSERVATIONS...

CITY           SKY/WX    TMP DP  RH WIND       PRES   REMARKS
LENORA KS        N/A     31  32 100 NE13G20     N/A
SHARON SPRINGS   N/A     32  20  62 N17G24      N/A
TRENTON NEB      N/A     26  32 100 CALM        N/A
KIT CARSON CO    N/A     27  16  63 MISG        N/A
YUMA CO        LGT SNOW  23  19  86 N5        30.00S
$$




USA.gov is the U.S. government's official web portal to all federal, state and local government web resources and services.